TimePST,TemperatureF,Dew PointF,Humidity,Sea Level PressureIn,VisibilityMPH,Wind Direction,Wind SpeedMPH,Gust SpeedMPH,PrecipitationIn,Events,Conditions,WindDirDegrees,DateUTC
12:53 AM,23.0,19.9,88,30.08,10.0,Variable,3.5,-,N/A,,Overcast,0,2013-02-18 08:53:00
1:13 AM,23.0,19.4,86,29.95,10.0,Variable,3.5,-,N/A,,Overcast,0,2013-02-18 09:13:00
1:53 AM,21.9,18.0,85,30.08,10.0,Variable,3.5,-,N/A,,Overcast,0,2013-02-18 09:53:00
2:53 AM,21.0,18.0,88,30.08,10.0,SSW,3.5,-,N/A,,Overcast,210,2013-02-18 10:53:00
3:19 AM,21.2,17.6,86,29.93,10.0,Calm,Calm,-,N/A,,Overcast,0,2013-02-18 11:19:00
3:33 AM,21.2,17.6,86,29.93,2.5,South,3.5,-,N/A,,Overcast,180,2013-02-18 11:33:00
3:37 AM,21.2,17.6,86,29.93,1.2,South,3.5,-,N/A,,Overcast,170,2013-02-18 11:37:00
3:45 AM,21.2,17.6,86,29.93,2.0,South,3.5,-,N/A,,Overcast,170,2013-02-18 11:45:00
3:53 AM,21.0,17.1,85,30.07,5.0,Calm,Calm,-,N/A,,Mostly Cloudy,0,2013-02-18 11:53:00
3:58 AM,19.4,15.8,86,29.93,10.0,South,3.5,-,N/A,,Scattered Clouds,180,2013-02-18 11:58:00
4:53 AM,19.9,16.0,85,30.07,10.0,SSE,5.8,-,N/A,,Partly Cloudy,160,2013-02-18 12:53:00
5:51 AM,19.4,15.8,86,29.91,10.0,South,5.8,-,N/A,,Mostly Cloudy,170,2013-02-18 13:51:00
6:13 AM,19.4,17.6,93,29.91,1.8,South,5.8,-,N/A,,Overcast,170,2013-02-18 14:13:00
6:41 AM,19.4,15.8,86,29.90,0.2,South,5.8,-,N/A,Fog,Light Freezing Fog,170,2013-02-18 14:41:00
6:53 AM,19.9,16.0,85,30.05,0.2,SSE,5.8,-,N/A,Fog,Light Freezing Fog,160,2013-02-18 14:53:00
7:53 AM,19.0,16.0,88,30.05,0.2,SSE,6.9,-,N/A,Fog,Light Freezing Fog,160,2013-02-18 15:53:00
8:53 AM,21.0,18.0,88,30.02,0.2,SSE,5.8,-,N/A,Fog,Light Freezing Fog,150,2013-02-18 16:53:00
9:36 AM,21.2,17.6,86,29.88,-9999.0,Variable,5.8,-,N/A,,Overcast,0,2013-02-18 17:36:00
9:53 AM,23.0,19.0,85,30.01,-9999.0,SSE,6.9,-,N/A,,Overcast,160,2013-02-18 17:53:00
10:10 AM,23.0,19.4,86,29.87,0.2,SSE,5.8,-,N/A,Fog,Light Freezing Fog,160,2013-02-18 18:10:00
10:53 AM,24.1,19.9,84,29.98,0.2,Variable,4.6,-,N/A,Fog,Light Freezing Fog,0,2013-02-18 18:53:00
11:35 AM,24.8,19.4,80,29.85,-9999.0,Variable,4.6,-,N/A,,Overcast,0,2013-02-18 19:35:00
11:53 AM,26.1,21.9,84,29.96,0.2,Variable,3.5,-,N/A,Fog,Light Freezing Fog,0,2013-02-18 19:53:00
12:32 PM,26.6,21.2,80,29.83,0.8,Variable,4.6,-,N/A,,Haze,0,2013-02-18 20:32:00
12:41 PM,26.6,21.2,80,29.82,1.2,Variable,6.9,-,N/A,,Haze,0,2013-02-18 20:41:00
12:48 PM,26.6,21.2,80,29.82,2.0,Variable,5.8,-,N/A,,Haze,0,2013-02-18 20:48:00
12:53 PM,27.0,21.0,78,29.94,6.0,Variable,5.8,-,N/A,,Haze,0,2013-02-18 20:53:00
1:53 PM,27.0,21.9,81,29.92,10.0,Variable,4.6,-,N/A,,Scattered Clouds,0,2013-02-18 21:53:00
2:53 PM,25.0,21.0,85,29.92,10.0,Variable,3.5,-,N/A,,Mostly Cloudy,0,2013-02-18 22:53:00
3:53 PM,24.1,21.0,88,29.91,10.0,SSE,4.6,-,N/A,,Overcast,160,2013-02-18 23:53:00
4:37 PM,24.8,21.2,86,29.76,2.5,Variable,3.5,-,N/A,,Overcast,0,2013-02-19 00:37:00
4:41 PM,24.8,21.2,86,29.76,1.2,Variable,3.5,-,N/A,,Overcast,0,2013-02-19 00:41:00
4:50 PM,24.8,21.2,86,29.76,1.8,South,5.8,-,N/A,,Mostly Cloudy,170,2013-02-19 00:50:00
4:53 PM,24.1,21.0,88,29.90,9.0,South,5.8,-,N/A,,Mostly Cloudy,170,2013-02-19 00:53:00
4:59 PM,23.0,21.2,93,29.76,7.0,SSE,4.6,-,N/A,,Mostly Cloudy,160,2013-02-19 00:59:00
5:22 PM,23.0,19.4,86,29.75,10.0,Variable,5.8,-,N/A,,Overcast,0,2013-02-19 01:22:00
5:53 PM,23.0,19.9,88,29.88,10.0,SSE,6.9,-,N/A,,Overcast,160,2013-02-19 01:53:00
6:53 PM,21.9,18.0,85,29.88,10.0,Variable,3.5,-,N/A,,Overcast,0,2013-02-19 02:53:00
7:53 PM,21.0,18.0,88,29.87,10.0,SE,4.6,-,N/A,,Overcast,140,2013-02-19 03:53:00
8:53 PM,21.0,17.1,85,29.85,10.0,Variable,3.5,-,N/A,,Overcast,0,2013-02-19 04:53:00
9:53 PM,21.0,17.1,85,29.83,10.0,SSE,5.8,-,N/A,,Overcast,160,2013-02-19 05:53:00
10:53 PM,19.9,17.1,89,29.81,10.0,South,8.1,-,N/A,,Partly Cloudy,170,2013-02-19 06:53:00
11:53 PM,19.9,18.0,92,29.79,10.0,South,8.1,-,N/A,,Overcast,170,2013-02-19 07:53:00